Regional Weather Roundup
Issued by NWS Kansas City/Pleasant Hill, MO

Home | Current Version | Previous Version | Graphics & Text | Print | Product List | Glossary Off
Versions: 1 2 3 4 5 6 7 8 9 10 11 12 13 14 15 16 17 18 19 20 21 22 23 24 25 26 27 28 29 30 31 32 33 34 35 36 37 38 39 40 41 42 43 44 45 46 47 48 49 50

000
ASUS43 KEAX 260711
RWREAX

WEATHER ROUNDUP FOR EASTERN KANSAS AND NORTHWEST MISSOURI
NATIONAL WEATHER SERVICE KANSAS CITY/PLEASANT HILL MO
200 AM CDT TUE MAY 26 2015

KSZ040-057-103>105-MOZ028-029-037-043-260800-
...KANSAS CITY METROPOLITAN AREA...

CITY           SKY/WX    TMP DP  RH WIND       PRES   REMARKS
K.C. INTL      DRIZZLE   61  60  97 NW7       29.83F
K.C. DOWNTOWN  CLOUDY    63  60  90 CALM      29.81F
LEES SUMMIT    RAIN      63  61  93 NW5       29.83F FOG
OLATHE - IXD   CLOUDY    62  61  96 NW8       29.82F
OLATHE - OJC   CLOUDY    63  61  93 N6        29.81F
LAWRENCE       CLOUDY    62  60  93 NW7       29.83F

$$

MOZ001>008-011>017-020>025-030>033-038>040-044>046-053-054-260800-
...NORTHERN AND CENTRAL MISSOURI...

CITY           SKY/WX    TMP DP  RH WIND       PRES   REMARKS
ST. JOSEPH     RAIN      62  61  96 S6        29.86R FOG
MOSBY          DRIZZLE   63  61  94 NW7       29.81F
WARRENSBURG    CLOUDY    68  64  88 N3        29.78F
WHITEMAN AFB   CLOUDY    68  66  94 NE3       29.77F
CLINTON        CLOUDY    70  68  94 CALM      29.78S
SEDALIA        CLOUDY    71  66  84 E7        29.80F
WARSAW         NOT AVBL
CHILLICOTHE      N/A     66  59  78 CALM      29.82S
KIRKSVILLE     CLOUDY    70  66  87 S12       29.84F

$$

MOZ041-047>049-056>058-063>065-088>090-097-260800-
...EASTERN AND SOUTHERN MISSOURI...

CITY           SKY/WX    TMP DP  RH WIND       PRES   REMARKS
ST. LOUIS INTL CLOUDY    74  66  76 SE12G20   29.90F
SPIRIT OF STL  CLOUDY    72  68  87 VRB6      29.88F
COLUMBIA       RAIN      70  66  87 S15G26    29.84F
JEFFERSON CITY LGT RAIN  70  66  87 SE9       29.81F
ROLLA          LGT RAIN  67  63  87 SE12      29.86F
OSAGE BEACH    CLOUDY    70  64  83 SE12      29.80F
SPRINGFIELD    LGT RAIN  65  59  81 SW15G25   29.80S
BRANSON        CLOUDY    63  59  88 SE5       29.85R
JOPLIN         CLOUDY    64  61  90 SW17G25   29.82R
WEST PLAINS    LGT RAIN  63  61  93 SE7       29.90F

$$

IAZ060-094-KSZ022-034>040-054-083-096-NEZ052-066-093-260800-
...KANSAS...SOUTHEAST NEBRASKA AND IOWA...

CITY           SKY/WX    TMP DP  RH WIND       PRES   REMARKS
TOPEKA         RAIN      62  61  96 E9        29.85F FOG
MANHATTAN      LGT RAIN  63  59  87 CALM      29.82R
EMPORIA        LGT RAIN  60  59  96 NE6       29.84F
CHANUTE        CLOUDY    64  57  78 NW6       29.81R
WICHITA        LGT RAIN  60  58  92 NE3       29.85R
OMAHA          CLOUDY    63  59  87 SE7       29.78S
LINCOLN        CLOUDY    62  57  83 S3        29.78S
FALLS CITY     RAIN      61  59  93 SE18      29.83R
LAMONI         LGT RAIN  64  58  80 CALM      29.80F
DES MOINES     CLOUDY    62  59  90 CALM      29.79F

$$



USA.gov is the U.S. government's official web portal to all federal, state and local government web resources and services.